Location: Unspecified
(50.7693°N, 0.0000°E)
Time: 10:20:00
(UTC+00:00)

SR - Pass Details

Date: 30 June 2019
Orbit: 580 x 876 km, 66.7° (Epoch: 20 July)

Event Time Altitude Azimuth Distance (km) Brightness Sun altitude
Rises 11:55:16 0° 306° (NW) 3,082 ? 62.4°
Reaches altitude 10° 11:58:57 10° 278° (W) 2,232 ? 62.4°
Maximum altitude 12:00:58 12° 254° (WSW) 2,108 ? 62.4°
Drops below altitude 10° 12:03:02 10° 231° (SW) 2,304 ? 62.4°
Sets 12:07:01 0° 203° (SSW) 3,298 ? 62.4°
